Hourly Weather Roundup
Issued by NWS Central Illinois

Home | Current Version | Previous Version | Text Only | Print | Product List | Glossary On
Versions: 1 2 3 4 5 6 7 8 9 10 11 12 13 14 15 16 17 18 19 20 21 22 23 24 25 26 27 28 29 30 31 32 33 34 35 36 37 38 39 40 41 42 43 44 45 46 47 48 49 50
000
NZUS43 KILX 050410
HWRILX

AREA WEATHER ROUNDUP
NATIONAL WEATHER SERVICE, LINCOLN IL
1100 PM CDT FRI SEP 04 2015


CITY           SKY/WX    TMP DP  RH WIND       PRES   REMARKS
BLOOMINGTON    PTCLDY    73  68  84 S12       30.07R
CHAMPAIGN      MOCLDY    69  64  84 SE6       30.07S
DANVILLE       MOCLDY    69  66  89 SW5       30.05F
DECATUR        PTCLDY    76  60  57 SE16      30.07F
EFFINGHAM      PTCLDY    76  63  63 NE8G17    30.11R
FLORA          MOCLDY    73  69  86 CALM      30.07R
GALESBURG      CLEAR     74  68  81 CALM      30.03S
JACKSONVILLE   CLEAR     77  70  79 S3        30.03S
LACON          CLEAR     78  69  73 SW3       30.02R HX  80
LAWRENCEVILLE  MOCLDY    76  71  85 CALM      30.06S
LITCHFIELD     CLEAR     74  69  83 E3        30.06R
$$


CITY           SKY/WX    TMP DP  RH WIND       PRES   REMARKS
LINCOLN        CLEAR     77  67  72 SE8       30.05R
MACOMB         CLEAR     74  68  80 S6        30.04S
MATTOON        LGT RAIN  71  66  84 NE10      30.09F
MT CARMEL AP   MOCLDY    72  68  88 CALM      30.06S
OLNEY-NOBLE AP MOCLDY    72  70  94 CALM      30.07R
PARIS          CLOUDY    71  69  92 W9        30.10R
PEORIA         PTCLDY    81  67  62 SE9       30.03R HX  83
PONTIAC        CLEAR     73  69  87 SE5       30.06R
RANTOUL        MOCLDY    72  68  88 S5        30.07F
ROBINSON       CLOUDY    75  67  76 N5        30.09R
SPRINGFIELD    CLEAR     77  69  76 S5        30.05R
TAYLORVILLE    MOCLDY    75  68  78 E15       30.08R
$$

...REGIONAL REPORTS...


CITY           SKY/WX    TMP DP  RH WIND       PRES   REMARKS
CHICAGO O`HARE PTCLDY    72  67  84 E6        30.06S
KANKAKEE       CLEAR     70  68  93 CALM      30.06F
MOLINE         PTCLDY    74  69  85 SE3       30.01R
MOUNT STERLING CLEAR     74  70  87 S3        30.03S
MOUNT VERNON   CLEAR     72  66  83 CALM      30.07R
PITTSFIELD     CLEAR     76  71  83 CALM      30.04S
QUINCY         CLEAR     78  70  76 SE6       30.02S HX  80
ROCKFORD       PTCLDY    72  66  81 E6        30.05S
$$


CITY           SKY/WX    TMP DP  RH WIND       PRES   REMARKS
BURLINGTON     CLEAR     76  71  85 SE5       30.00S
CEDAR RAPIDS   PTCLDY    75  73  93 E5        29.99S
DES MOINES     CLOUDY    80  70  71 S7        29.97S HX  83
KIRKSVILLE     CLEAR     75  68  78 S5        30.02R
OTTUMWA        PTCLDY    75  69  81 SE5       29.98R
ST LOUIS       CLEAR     83  69  62 SW3       30.04R HX  86
$$


CITY           SKY/WX    TMP DP  RH WIND       PRES   REMARKS
TERRE HAUTE    CLOUDY    73  65  75 CALM      30.07F
EVANSVILLE     CLEAR     76  69  79 CALM      30.06S
INDIANAPOLIS   CLOUDY    71  66  84 CALM      30.08S
LAFAYETTE      CLEAR     69  64  84 W6        30.07S
MADISON        PTCLDY    71  67  87 SE6       30.04S
MILWAUKEE      FOG       66  65  96 S5        30.06S VSB 1/2
$$





USA.gov is the U.S. government's official web portal to all federal, state and local government web resources and services.